Temperature
31 32 32 33 33 33 33 33 32 32 31 31 31 30 30 28 27 27 26 25 24 23 23 22 21 20 20 19 19 19 19 19 19 18 18 18 18 18 18 18 18 18 18 18
31 32 33 33 32 32 32 32 32 31 31 31 31 31 31 29 28 27 27 26 25 24 23 22 21 20 20 20 20 19 19 19 19 19 19 18 18 18 18 18 18 18 18 18
32 32 32 32 32 32 32 32 32 31 31 31 31 31 30 30 28 28 27 26 26 25 24 23 22 21 21 20 20 20 20 19 19 19 18 18 18 18 18 18 18 18 18 18
31 31 31 31 31 32 32 32 32 31 31 32 31 31 31 31 29 29 28 27 26 26 24 24 22 22 21 21 21 20 20 20 20 19 19 18 18 18 18 18 18 18 18 18
31 31 31 31 32 32 32 32 32 32 32 32 32 32 32 31 30 30 29 28 27 26 25 24 23 22 22 21 21 20 20 20 20 20 19 19 18 18 18 18 18 18 18 18
31 31 31 32 31 31 31 31 31 31 32 31 31 31 32 32 32 32 30 29 27 27 26 24 24 22 22 21 21 21 20 20 20 20 20 19 19 19 18 18 18 18 18 18
29 30 31 31 31 30 31 31 30 30 30 31 31 31 32 32 32 31 30 29 28 27 26 25 24 23 22 22 21 21 21 21 20 20 20 19 19 19 18 18 18 18 18 18
29 29 30 31 31 31 31 32 31 30 30 31 30 31 32 32 31 30 29 29 28 27 26 25 24 23 23 22 22 21 21 21 21 20 20 19 19 18 18 18 18 18 18 18
30 30 30 30 31 32 31 31 33 32 31 31 31 31 32 31 31 30 30 29 28 27 26 25 24 23 23 22 22 21 21 21 21 20 20 19 19 19 18 18 18 18 18 17
31 29 30 30 30 30 32 32 31 31 30 30 31 31 32 31 31 31 30 29 28 27 26 25 24 23 23 22 22 21 21 21 21 20 20 19 19 19 18 18 18 18 18 17
30 29 29 29 30 30 30 31 31 31 31 30 30 31 33 32 31 31 31 29 28 27 26 25 24 23 22 22 21 21 21 20 20 20 20 19 19 19 18 18 18 18 17 17
29 30 29 29 30 30 31 31 31 30 29 30 31 32 32 31 31 30 30 29 27 26 26 25 24 23 22 22 21 21 21 20 20 20 20 19 19 18 18 18 18 17 17 17
29 29 28 28 29 29 30 30 31 31 30 30 30 31 31 31 30 30 29 28 26 25 25 24 23 22 22 22 21 21 20 20 20 20 19 19 19 18 18 18 18 17 17 17
27 28 28 29 29 30 29 30 30 30 30 30 31 32 31 31 30 29 28 27 26 25 24 23 22 22 22 21 21 21 20 20 20 20 19 19 19 18 18 18 18 17 17 16
27 28 28 29 30 30 30 30 30 30 31 31 31 31 32 31 30 29 27 27 26 25 24 23 22 22 21 21 21 21 20 20 20 19 19 19 18 18 18 18 17 17 17 16
26 27 28 28 29 29 29 30 30 30 30 31 31 31 32 30 29 28 27 26 26 25 24 23 22 22 22 21 21 21 21 20 20 19 19 19 18 18 18 17 17 17 17 16
26 26 26 27 28 28 28 29 30 30 30 31 30 31 30 30 28 27 26 26 26 25 24 23 22 22 22 22 21 21 21 20 19 19 19 18 18 18 18 17 17 17 17 16
24 24 26 27 27 26 29 30 30 30 30 30 31 30 30 29 28 27 26 25 25 24 23 22 22 22 21 21 21 21 20 20 19 19 19 18 18 18 18 17 17 17 16 16
24 24 26 27 26 27 28 29 29 29 29 30 30 29 28 28 27 27 25 25 24 24 23 22 22 22 21 21 21 20 20 19 19 19 18 18 18 18 17 17 17 17 16 16
23 23 25 26 26 26 28 28 27 28 28 28 28 28 27 27 29 29 25 24 23 23 22 22 22 21 21 21 21 20 20 19 19 19 18 18 18 18 17 17 17 16 16 16
23 23 24 25 26 27 28 27 27 27 27 27 26 26 26 27 27 25 24 23 22 22 22 22 21 21 21 21 21 20 20 19 19 19 18 18 18 18 17 17 17 16 16 16
24 24 24 25 25 26 26 27 27 26 25 25 25 25 25 25 24 23 23 22 22 21 21 21 21 21 21 20 20 20 20 19 19 18 18 18 17 17 17 16 16 16 15 15
24 25 26 26 26 25 24 25 24 23 23 24 24 24 24 23 23 22 22 21 21 21 21 20 20 20 20 20 20 19 19 19 18 18 18 17 17 17 16 16 16 15 15 15
22 22 24 24 24 24 23 22 22 22 22 23 23 23 23 23 22 22 21 21 21 20 20 20 20 20 19 19 19 19 19 19 18 18 18 17 17 16 16 16 15 15 15 15
22 22 23 23 23 23 22 22 21 21 21 22 22 22 22 21 21 21 21 20 20 20 20 19 19 19 19 19 19 18 18 18 18 17 17 17 16 16 16 15 15 15 15 15
22 22 23 23 22 23 22 21 21 21 21 21 21 21 21 21 20 20 20 20 20 20 19 19 19 19 19 19 18 18 18 18 17 17 17 16 16 16 15 15 15 15 15 14
Wind_Speed
8 10 11 10 8 4 5 5 5 4 5 6 5 4 8 11 12 11 11 11 11 10 10 10 9 9 8 8 8 8 7 6 5 4 3 3 2 2 2 2 2 3 3 3
9 11 9 8 8 7 7 7 6 6 4 5 4 5 7 10 12 12 12 12 12 11 11 11 10 10 10 9 9 9 8 7 6 4 3 2 2 3 2 2 2 2 2 3
14 8 9 10 10 10 9 8 7 6 6 6 5 6 8 9 10 11 11 12 12 12 13 13 12 11 11 10 10 8 8 8 7 6 4 3 3 3 3 3 2 2 2 2
11 7 10 12 12 11 10 7 7 7 7 4 5 3 6 9 10 12 13 13 13 13 13 13 13 12 12 11 10 9 8 8 7 6 6 5 4 4 3 3 2 3 3 3
10 10 12 13 11 10 6 6 7 8 7 6 6 5 4 8 8 10 13 14 13 13 14 13 13 12 11 11 10 9 9 8 8 7 6 6 5 4 3 3 3 3 2 3
8 7 9 9 7 8 9 8 6 7 9 9 6 7 4 4 4 5 8 11 13 13 13 13 12 11 11 10 10 9 9 8 8 8 7 7 6 5 4 4 3 3 2 2
10 10 8 8 10 11 12 11 8 9 9 8 5 7 4 1 2 4 6 8 11 12 13 13 13 12 12 12 11 10 9 8 8 8 7 7 6 6 5 5 4 3 2 2
15 14 12 11 12 11 14 15 10 8 8 7 7 7 4 2 3 3 5 6 8 10 12 12 13 12 12 12 11 10 9 8 8 7 7 6 6 5 4 4 3 2 2 2
14 13 11 9 9 11 13 13 11 9 8 8 7 6 5 5 5 5 5 7 8 9 10 11 12 12 12 11 11 10 10 8 7 7 6 6 5 4 3 2 3 2 1 1
9 11 11 10 8 6 9 11 9 10 10 10 9 10 7 7 7 6 6 7 7 8 9 10 11 11 10 10 10 9 9 8 7 7 6 5 5 4 3 2 1 1 1 0
11 11 12 12 13 14 11 13 11 10 10 11 9 6 3 5 5 6 7 7 8 8 9 10 10 11 10 10 10 10 9 8 8 7 6 5 5 4 4 3 2 1 1 1
12 11 12 13 8 7 12 13 14 12 10 10 10 5 5 4 5 5 6 7 7 7 8 9 10 10 11 10 10 10 9 9 8 7 7 6 5 5 4 3 2 2 2 1
10 10 12 12 11 10 12 12 13 12 10 11 12 7 6 4 5 5 6 7 7 8 8 9 9 10 10 10 10 10 9 9 8 8 7 7 6 5 5 4 3 2 2 2
8 12 14 16 13 15 15 14 14 14 12 12 13 8 5 5 5 6 7 7 8 8 9 9 9 9 9 9 9 9 9 9 9 8 8 7 6 6 5 4 4 3 3 3
7 13 14 11 9 13 15 16 16 17 15 13 12 11 7 5 5 6 7 8 9 9 9 9 9 9 9 9 9 9 9 9 9 9 8 7 7 7 6 5 5 4 3 3
6 9 12 12 11 13 15 16 17 17 16 14 13 11 5 4 5 6 7 8 9 9 9 9 9 9 9 9 9 9 9 10 10 9 9 8 8 7 7 6 5 5 4 3
8 8 12 14 13 13 17 17 17 16 16 15 14 11 6 6 6 7 7 8 8 8 8 9 9 9 9 9 9 10 10 10 10 10 9 9 8 8 7 7 6 5 5 4
8 9 10 11 11 16 12 11 14 15 15 14 12 8 7 7 6 6 6 7 7 8 9 9 9 9 9 9 9 9 10 11 10 10 9 9 8 8 7 7 6 5 4 4
10 10 10 12 15 14 8 8 11 13 13 11 10 8 6 5 6 6 5 5 6 8 8 8 8 9 9 9 10 10 10 11 11 10 9 9 9 9 8 7 6 5 5 4
9 10 11 12 15 16 10 8 7 10 12 8 8 7 7 7 9 6 5 6 6 7 7 7 8 8 9 9 10 11 10 11 11 10 10 9 9 9 8 8 7 6 5 5
13 11 15 15 14 11 5 8 9 12 8 5 7 7 8 8 5 2 4 6 6 7 8 8 7 7 8 9 10 10 10 10 10 10 10 9 9 9 8 8 7 6 6 5
14 13 14 14 15 11 6 8 9 4 1 3 5 6 7 5 4 3 5 6 7 7 8 8 7 7 7 8 10 10 10 9 9 9 9 9 9 8 8 8 7 7 6 6
10 7 8 9 7 2 5 4 2 1 3 4 5 5 6 6 5 5 5 6 6 7 7 7 7 7 6 7 8 9 8 9 9 9 9 9 9 8 8 9 8 8 7 6
6 4 5 5 5 4 4 3 3 3 4 4 5 5 5 6 6 6 5 5 6 7 7 7 7 7 6 6 7 7 8 9 9 9 9 9 9 9 8 7 7 7 7 6
5 5 6 7 6 5 5 3 3 3 3 3 4 5 5 5 6 6 5 6 6 6 7 7 7 7 7 7 7 7 8 8 9 9 8 9 8 8 8 7 5 6 4 3
6 6 7 6 4 5 5 4 4 3 3 3 3 3 3 4 5 5 5 5 6 6 6 7 7 6 7 7 7 7 8 8 9 9 9 8 8 8 7 7 6 2 2 4
Wind_Direction
190 203 202 198 211 214 195 195 175 146 157 197 204 184 167 177 188 189 189 189 190 194 186 182 184 185 183 185 188 191 195 191 202 209 218 219 218 223 234 229 224 247 258 248
194 208 201 192 195 200 199 199 182 155 168 212 211 209 187 188 198 199 196 195 193 191 189 187 188 190 191 190 195 196 198 198 206 207 220 234 258 251 245 259 231 250 256 257
207 187 178 190 192 199 205 211 197 175 171 201 225 201 190 193 204 205 206 204 200 196 194 191 192 195 194 196 198 198 199 198 206 210 213 215 220 244 239 242 235 250 260 264
208 176 183 193 198 207 206 209 202 191 208 197 235 219 174 185 198 206 208 206 204 200 198 196 195 195 197 197 196 197 197 200 203 208 217 221 233 245 250 252 251 249 250 259
192 187 193 201 200 209 201 176 195 209 230 238 221 256 169 171 201 204 205 206 204 201 199 198 197 195 195 196 195 192 193 198 200 206 213 221 234 238 235 237 241 254 248 257
182 185 202 199 185 188 156 158 177 216 236 236 233 256 221 176 200 189 190 200 201 199 197 196 194 190 192 192 193 190 189 196 198 202 208 217 228 238 247 245 243 243 241 251
188 186 183 182 170 174 190 194 202 212 221 229 209 243 246 171 199 207 194 192 195 194 193 192 191 190 190 190 188 188 188 192 195 198 206 211 221 227 234 244 240 254 259 257
195 193 188 193 201 193 205 216 226 230 226 216 195 234 227 165 205 209 195 188 185 185 187 189 189 188 188 187 186 186 185 188 191 195 202 208 215 228 232 232 250 245 262 266
202 195 175 191 206 210 203 221 237 242 247 246 218 221 224 197 203 195 184 177 177 179 180 183 184 184 184 181 182 182 180 182 184 188 192 196 202 214 223 214 233 247 240 232
209 197 178 176 184 209 225 211 216 232 236 238 231 230 227 201 199 191 188 180 172 172 173 176 178 179 179 177 174 173 171 171 174 177 183 175 178 179 186 194 176 186 195 183
212 203 183 187 204 198 194 206 220 227 241 245 241 230 192 200 194 192 184 177 171 170 169 170 171 171 170 169 167 167 167 167 167 169 168 169 163 159 155 151 151 154 144 127
209 212 201 199 198 226 215 214 212 221 224 242 256 230 129 175 188 192 182 171 165 167 164 162 162 164 165 166 167 166 167 167 165 163 160 159 155 151 149 144 138 127 122 124
195 209 199 198 198 203 210 211 217 227 228 233 241 226 133 163 181 184 179 167 159 160 158 156 157 160 165 166 167 166 167 165 163 160 157 154 153 152 151 148 142 139 136 131
215 214 221 219 207 197 204 207 210 219 227 229 237 238 180 188 190 184 178 171 164 160 159 159 159 161 163 166 167 166 166 164 162 160 159 156 157 156 152 148 145 144 144 138
213 216 223 235 222 207 211 210 211 222 233 240 237 238 222 199 196 186 178 174 167 164 164 164 164 161 162 163 166 168 167 166 165 163 160 158 154 151 149 148 146 144 143 139
212 218 215 221 220 217 220 218 217 223 229 237 241 240 223 199 191 181 178 177 174 170 168 167 166 163 164 164 165 166 168 165 165 166 163 157 156 153 153 154 153 150 146 137
200 206 213 218 211 218 225 220 219 222 227 231 234 234 201 199 199 195 189 186 182 173 168 169 170 168 167 167 167 167 167 164 165 166 163 162 160 158 160 160 155 152 150 146
211 215 217 219 205 224 228 216 219 223 227 230 236 228 216 223 215 208 196 190 185 173 168 168 171 169 168 166 166 166 162 165 167 166 166 164 163 161 162 161 158 157 158 156
211 212 218 219 219 224 214 206 210 216 222 221 228 226 223 217 207 203 189 187 180 172 167 166 168 167 165 166 165 164 164 167 169 170 170 169 169 165 167 167 162 161 162 159
195 214 221 219 225 227 211 186 201 215 220 208 217 220 217 213 227 214 174 175 167 160 157 158 160 161 163 166 167 167 169 171 174 173 172 170 171 170 171 168 165 163 165 164
186 200 217 221 226 230 197 172 186 215 216 192 215 218 215 220 247 206 164 167 165 161 158 155 155 156 161 166 172 175 175 178 176 171 169 170 172 173 171 167 167 169 172 165
199 201 209 218 225 221 169 184 205 231 204 207 220 218 218 216 207 187 166 161 161 160 159 155 152 152 156 167 173 177 179 176 171 170 171 173 173 173 169 169 171 176 177 170
215 222 211 217 222 145 172 200 203 245 240 234 232 228 214 208 204 189 174 164 163 162 162 161 156 154 158 170 177 177 172 169 168 171 174 175 175 173 173 176 177 182 189 189
204 240 224 218 208 199 194 214 232 247 251 250 236 218 208 205 197 187 178 172 171 171 168 166 164 162 166 173 175 172 168 169 172 176 177 175 177 177 176 182 187 193 191 192
215 209 214 218 214 209 207 228 247 259 252 235 222 218 212 199 194 191 185 181 179 176 172 171 171 169 169 171 171 167 164 170 176 176 178 181 184 179 178 185 189 199 192 196
218 222 226 220 213 228 229 244 249 238 226 217 206 206 208 197 190 188 183 180 177 174 171 174 174 170 168 169 171 172 170 174 180 182 183 186 186 182 185 182 179 108 150 137
Height
1510 1508 1508 1507 1506 1507 1510 1513 1518 1519 1520 1523 1525 1526 1530 1536 1539 1541 1544 1547 1549 1552 1555 1557 1558 1560 1561 1562 1563 1564 1565 1566 1567 1568 1569 1570 1570 1571 1571 1571 1571 1571 1571 1571
1509 1508 1505 1507 1509 1510 1511 1516 1518 1521 1521 1522 1523 1525 1525 1531 1535 1537 1540 1543 1546 1549 1552 1555 1556 1558 1559 1560 1561 1563 1564 1565 1566 1567 1568 1569 1569 1570 1570 1570 1570 1570 1570 1569
1505 1504 1507 1509 1511 1513 1513 1514 1516 1520 1522 1521 1523 1524 1525 1527 1532 1535 1537 1540 1543 1546 1549 1552 1554 1556 1557 1559 1560 1561 1562 1564 1565 1566 1567 1568 1568 1568 1569 1569 1569 1568 1568 1568
1503 1505 1508 1509 1511 1511 1516 1511 1514 1518 1522 1521 1522 1528 1521 1521 1526 1530 1533 1536 1539 1542 1545 1548 1551 1553 1555 1556 1558 1559 1561 1562 1563 1564 1565 1566 1566 1567 1567 1567 1567 1567 1566 1566
1504 1505 1507 1509 1509 1509 1511 1513 1514 1516 1519 1521 1520 1524 1518 1518 1522 1523 1527 1531 1534 1538 1541 1545 1547 1550 1552 1554 1556 1557 1559 1560 1561 1562 1563 1563 1565 1566 1566 1566 1565 1565 1565 1564
1501 1505 1505 1505 1508 1510 1513 1516 1518 1517 1516 1530 1523 1526 1523 1512 1515 1516 1521 1526 1530 1534 1538 1541 1544 1547 1549 1552 1554 1555 1556 1557 1558 1559 1560 1561 1562 1563 1563 1563 1564 1563 1563 1562
1506 1504 1505 1506 1510 1513 1512 1518 1530 1534 1532 1530 1519 1524 1519 1509 1511 1515 1518 1523 1527 1530 1534 1538 1541 1543 1546 1548 1550 1552 1553 1555 1556 1557 1558 1559 1560 1560 1561 1561 1561 1561 1561 1561
1507 1510 1503 1504 1504 1508 1509 1510 1525 1536 1533 1524 1522 1523 1511 1508 1512 1515 1518 1521 1524 1527 1531 1534 1537 1540 1543 1545 1547 1549 1551 1552 1554 1555 1555 1556 1557 1558 1559 1559 1559 1559 1559 1559
1498 1503 1501 1503 1503 1503 1509 1508 1502 1514 1519 1524 1517 1514 1509 1508 1511 1513 1516 1519 1522 1525 1528 1531 1534 1537 1540 1542 1544 1547 1548 1550 1551 1552 1553 1554 1555 1555 1556 1557 1557 1557 1557 1556
1490 1501 1500 1503 1504 1506 1501 1502 1509 1515 1531 1533 1523 1518 1512 1509 1508 1510 1513 1516 1520 1523 1526 1529 1532 1535 1537 1540 1542 1544 1546 1547 1548 1550 1551 1552 1552 1553 1554 1555 1555 1555 1555 1554
1488 1498 1502 1502 1503 1503 1506 1507 1506 1509 1513 1524 1528 1517 1498 1503 1505 1508 1511 1515 1518 1521 1524 1527 1530 1532 1535 1538 1540 1541 1543 1545 1546 1548 1549 1550 1550 1551 1552 1553 1553 1553 1553 1553
1490 1492 1499 1499 1498 1498 1498 1500 1505 1516 1520 1515 1516 1512 1498 1502 1505 1508 1510 1514 1517 1520 1523 1525 1528 1531 1533 1535 1537 1539 1541 1543 1544 1546 1547 1548 1549 1550 1550 1551 1551 1552 1552 1551
1491 1494 1507 1508 1507 1502 1500 1499 1500 1502 1508 1512 1516 1510 1499 1502 1504 1507 1510 1513 1516 1519 1522 1524 1527 1529 1531 1533 1535 1538 1539 1541 1543 1544 1546 1547 1548 1549 1549 1550 1550 1551 1551 1551
1492 1491 1496 1500 1495 1494 1500 1500 1499 1502 1508 1509 1507 1501 1499 1501 1503 1507 1510 1513 1515 1518 1521 1523 1525 1527 1529 1532 1534 1536 1538 1540 1541 1543 1544 1545 1547 1548 1549 1549 1550 1550 1550 1550
1491 1492 1490 1487 1484 1488 1493 1496 1498 1499 1498 1502 1499 1497 1496 1498 1502 1506 1508 1511 1514 1516 1519 1521 1523 1525 1528 1530 1532 1534 1536 1538 1539 1541 1542 1544 1545 1546 1547 1548 1549 1549 1549 1550
1492 1492 1491 1493 1488 1488 1492 1491 1493 1494 1494 1495 1495 1495 1493 1498 1502 1505 1507 1510 1511 1514 1517 1519 1522 1524 1526 1528 1530 1532 1534 1535 1537 1539 1541 1542 1543 1545 1546 1547 1548 1548 1549 1549
1490 1494 1495 1493 1489 1492 1497 1488 1489 1490 1489 1491 1495 1492 1494 1498 1500 1503 1506 1508 1510 1512 1515 1518 1520 1522 1523 1526 1528 1530 1532 1534 1535 1537 1539 1541 1542 1544 1545 1546 1547 1547 1547 1548
1494 1495 1492 1490 1497 1509 1486 1478 1481 1486 1487 1487 1487 1489 1493 1497 1499 1502 1504 1506 1508 1511 1513 1515 1518 1520 1522 1524 1526 1528 1530 1532 1534 1536 1538 1539 1540 1542 1544 1545 1545 1546 1546 1547
1493 1494 1491 1490 1495 1492 1484 1481 1482 1485 1487 1486 1487 1490 1494 1496 1498 1500 1503 1505 1507 1509 1511 1513 1515 1517 1519 1521 1524 1526 1528 1530 1532 1533 1535 1537 1538 1540 1542 1543 1544 1545 1545 1546
1492 1492 1491 1490 1495 1495 1481 1479 1483 1485 1489 1486 1488 1491 1493 1495 1493 1494 1500 1502 1505 1507 1509 1511 1513 1515 1517 1519 1521 1523 1525 1527 1529 1531 1533 1534 1536 1538 1539 1541 1542 1543 1544 1545
1489 1492 1490 1488 1489 1479 1474 1479 1484 1492 1487 1486 1488 1490 1492 1493 1493 1496 1498 1501 1503 1505 1507 1509 1511 1513 1514 1516 1519 1521 1523 1524 1527 1529 1530 1532 1534 1535 1537 1538 1540 1541 1542 1543
1478 1481 1486 1484 1487 1484 1477 1479 1481 1482 1484 1485 1487 1489 1491 1493 1494 1495 1497 1499 1501 1503 1505 1507 1508 1510 1512 1514 1516 1518 1520 1522 1524 1526 1528 1529 1531 1533 1535 1536 1537 1539 1540 1541
1472 1472 1470 1475 1477 1476 1478 1479 1482 1484 1484 1485 1486 1488 1490 1491 1493 1494 1496 1498 1499 1501 1503 1505 1506 1508 1510 1512 1514 1516 1517 1520 1521 1523 1525 1527 1529 1530 1532 1534 1535 1536 1538 1539
1474 1477 1474 1475 1475 1477 1479 1481 1482 1483 1484 1484 1485 1486 1488 1489 1491 1492 1494 1496 1497 1499 1501 1502 1504 1506 1507 1509 1511 1513 1514 1516 1519 1521 1522 1524 1526 1528 1530 1531 1533 1534 1536 1537
1473 1476 1473 1474 1476 1478 1479 1480 1481 1482 1482 1483 1483 1485 1486 1487 1488 1490 1492 1493 1495 1497 1499 1500 1502 1503 1504 1506 1508 1510 1511 1513 1516 1518 1519 1521 1524 1525 1527 1528 1530 1531 1532 1534
1473 1474 1473 1472 1476 1476 1478 1479 1480 1480 1481 1481 1482 1483 1484 1486 1486 1488 1489 1491 1493 1494 1496 1498 1499 1501 1502 1504 1505 1507 1508 1510 1513 1514 1516 1518 1521 1522 1524 1525 1527 1528 1529 1530